Theta_e
351 352 353 355 356 357 357 357 357 357 357 358 358 357 357 356 356 356 352 345 342 344 346 348 347 347 348 346 345 344 343 341 339 338 338 337 335 335 335 337 337 338 340 342 342 341 341 343 345 346 345 344 344 343 344 344 343 341 342 343 341 339 340
349 349 350 354 355 356 357 357 357 357 357 357 358 356 357 357 356 355 351 347 343 344 346 347 348 348 348 347 346 346 344 341 339 338 337 337 336 337 337 338 340 339 340 343 344 342 341 342 343 344 344 344 344 344 344 344 344 342 340 343 344 341 339
345 347 348 351 354 355 356 357 357 357 357 358 358 356 355 356 355 353 350 347 345 345 346 347 348 348 348 348 347 347 346 343 342 341 339 338 338 338 340 340 341 341 340 341 342 341 341 341 342 343 343 344 344 344 344 345 345 343 341 341 344 343 339
342 344 347 350 354 354 355 356 357 357 357 357 357 356 354 353 353 350 347 346 345 344 346 347 347 347 347 347 348 348 346 345 345 345 342 342 341 340 341 341 340 342 342 341 342 341 340 341 342 342 341 342 344 345 345 346 345 344 342 341 343 345 342
341 343 345 350 352 354 355 355 356 356 356 356 357 357 356 353 351 349 347 344 344 345 346 346 346 347 347 347 348 348 347 346 345 345 344 343 343 342 342 342 342 342 343 343 342 341 340 341 340 341 341 341 341 343 344 345 345 344 343 342 342 343 343
342 343 346 349 352 353 355 355 355 355 355 356 357 357 357 355 353 351 348 346 345 345 345 345 346 346 346 348 348 347 346 346 344 344 345 345 344 345 343 342 343 343 343 344 343 342 341 340 341 340 341 341 341 343 344 344 344 344 343 343 342 341 342
341 343 346 347 351 353 353 354 354 354 355 355 356 358 358 357 355 354 353 350 346 346 346 345 346 346 347 347 347 347 346 346 345 345 346 346 345 345 345 344 344 344 345 344 343 343 342 340 340 340 340 340 340 343 345 343 343 343 342 343 343 342 341
340 344 347 348 349 351 353 354 353 354 355 355 355 357 356 356 356 355 356 353 350 350 349 346 345 346 347 347 347 347 347 346 347 347 346 346 346 346 346 346 346 345 345 344 343 342 342 340 340 340 339 340 340 341 342 341 341 342 341 342 342 341 340
337 344 348 347 347 350 351 353 353 354 355 354 355 356 356 356 357 357 356 355 353 351 350 348 348 346 345 347 347 347 347 347 347 347 346 346 347 347 347 347 347 346 345 344 343 342 341 340 340 339 339 340 340 341 340 340 340 340 340 340 339 338 339
337 343 348 349 347 349 351 353 354 353 354 354 354 355 356 355 356 356 356 356 355 352 351 351 352 348 345 345 347 346 347 347 347 346 346 347 348 348 348 348 349 346 344 343 344 342 341 341 340 340 339 339 339 340 340 339 339 339 340 339 337 336 337
338 345 349 350 349 350 352 352 354 353 354 354 354 354 356 355 356 356 356 356 356 355 354 354 355 352 346 343 345 346 347 347 346 347 347 347 347 347 348 350 351 349 346 345 346 345 343 341 341 340 340 339 340 339 339 339 338 339 338 338 336 336 335
339 344 347 349 349 350 352 352 354 355 354 353 353 354 355 355 356 355 355 355 356 356 357 356 356 354 349 342 343 345 346 347 347 347 347 347 348 348 349 351 352 351 348 347 347 347 345 343 342 341 340 339 340 339 338 338 339 338 337 337 337 335 334
340 342 345 347 348 349 352 352 354 355 354 352 353 354 354 355 355 355 355 356 356 356 357 356 357 357 352 344 343 344 345 346 346 346 347 346 347 349 351 351 353 353 351 348 347 348 348 346 342 341 340 340 339 339 338 338 338 338 337 336 337 336 334
336 338 342 346 348 348 351 354 355 356 354 352 353 353 354 355 355 354 355 355 355 356 357 356 357 357 353 347 345 344 343 344 345 345 346 347 346 348 350 351 353 353 352 349 348 349 350 349 344 340 340 341 340 339 339 338 337 337 337 336 336 335 333
334 331 335 343 348 350 351 352 353 354 352 351 352 353 354 354 354 354 355 355 356 356 356 357 357 355 353 349 346 344 343 343 344 345 345 347 346 347 348 350 351 351 350 349 348 349 351 351 349 345 342 342 341 340 339 338 337 336 335 334 334 334 333
339 336 337 338 344 349 351 351 349 348 349 350 351 352 355 354 354 354 355 355 355 355 356 357 356 354 352 349 346 345 343 343 343 344 346 346 346 346 347 347 349 349 349 348 348 349 349 350 351 350 347 343 341 341 340 338 337 335 334 333 333 333 332
345 349 351 348 346 346 349 351 352 349 349 349 348 351 353 354 354 354 355 355 355 355 356 356 356 353 350 348 347 346 344 343 343 343 345 346 347 346 347 347 348 348 348 348 348 348 348 349 350 351 351 348 342 341 340 338 336 333 332 332 332 332 332
351 355 357 359 358 355 350 350 352 353 349 344 346 350 352 353 354 354 354 355 355 355 355 356 356 353 351 350 348 346 345 344 343 344 344 345 345 346 347 347 348 348 348 348 348 348 348 349 349 349 351 351 347 342 340 338 336 334 333 332 332 332 332
355 356 358 360 362 361 357 351 349 352 350 345 344 347 349 351 351 351 351 354 355 355 355 357 357 354 352 351 349 346 345 345 344 344 344 344 345 346 347 347 347 348 348 348 348 348 348 349 349 348 350 352 349 344 341 340 337 334 333 332 331 332 332
356 358 359 359 360 361 363 359 351 349 352 350 344 344 348 352 351 349 351 354 356 355 355 357 358 355 352 350 348 346 346 346 345 344 344 344 345 346 347 347 347 348 348 348 348 349 348 349 349 349 349 350 348 345 344 342 339 334 333 333 332 331 332
356 357 358 360 361 361 363 363 354 346 349 353 350 348 351 354 354 353 353 354 355 355 356 357 358 356 352 349 347 346 346 346 346 345 345 345 345 346 347 347 347 348 348 349 349 348 349 349 349 350 349 349 348 347 345 342 339 335 334 333 333 333 332
353 356 358 359 361 362 363 362 355 346 345 352 353 352 353 355 355 354 353 354 355 356 356 357 356 354 351 348 347 346 346 346 346 346 345 345 345 346 346 347 348 348 348 349 350 349 349 349 349 350 349 349 348 347 346 341 338 335 333 333 333 333 333
348 354 358 359 360 363 360 355 352 347 346 351 352 351 353 355 355 354 354 355 356 356 356 356 354 351 348 347 346 346 346 346 347 347 346 346 346 346 346 348 347 348 349 348 350 351 349 348 349 349 349 349 348 347 345 343 339 336 334 334 333 334 334
348 353 358 359 361 359 353 350 350 349 349 353 352 350 352 355 355 354 354 355 355 356 357 355 352 348 347 346 346 346 346 346 346 347 347 347 347 346 347 348 347 349 349 348 349 351 350 349 349 349 349 349 349 348 345 344 343 339 335 335 335 334 335
348 354 357 360 360 355 349 349 351 349 351 354 352 350 353 354 355 355 355 356 356 357 357 354 349 346 346 346 346 347 347 347 347 347 347 347 348 348 347 348 348 348 348 349 349 350 351 351 349 349 349 349 349 349 347 346 347 343 339 337 337 336 337
347 355 357 360 359 354 350 352 352 351 353 354 351 352 354 354 355 355 355 355 357 357 356 350 346 345 346 346 347 347 347 347 347 347 348 348 348 348 348 348 349 349 348 349 349 349 351 352 350 349 349 349 349 349 348 348 349 346 342 340 339 338 339
349 355 356 358 358 354 352 354 353 352 353 353 353 353 354 355 356 355 354 355 355 354 352 349 346 347 347 346 347 348 347 347 348 348 347 348 348 348 349 348 348 349 349 349 349 349 349 350 351 350 349 350 350 350 350 350 350 349 348 345 343 343 343
348 354 355 356 358 357 355 354 353 352 353 354 354 354 354 355 355 353 352 353 350 349 351 351 348 346 347 346 347 348 347 348 348 347 348 348 348 349 349 348 349 350 349 349 349 349 349 349 350 351 352 354 353 353 352 351 351 350 351 350 349 348 348
348 352 354 355 357 358 357 355 353 352 354 355 355 354 355 355 352 351 349 347 347 348 351 351 348 346 347 347 347 348 347 348 347 349 349 349 349 349 349 349 350 350 350 349 350 351 351 350 350 352 354 357 358 357 355 355 355 354 353 353 354 353 352
346 351 354 354 356 357 358 358 355 352 354 357 356 356 355 353 348 347 346 345 347 349 349 348 346 346 347 347 347 348 348 349 348 348 348 349 349 350 350 349 349 350 351 350 351 351 352 352 354 355 356 358 360 359 359 360 360 359 357 356 355 355 354
345 350 353 354 355 356 357 360 360 357 356 358 357 356 354 352 348 346 347 347 347 347 348 347 346 347 348 347 348 348 348 349 349 348 348 349 349 349 350 350 350 351 352 353 354 355 355 355 357 359 359 359 360 360 361 361 361 361 360 359 358 357 357
345 351 352 354 356 356 356 359 360 361 360 359 359 359 356 352 349 348 348 348 348 347 348 348 347 347 348 348 348 349 349 350 350 350 349 349 350 350 350 350 351 351 352 353 355 357 358 359 360 361 360 360 361 362 362 362 362 361 362 361 360 359 359
343 348 351 353 355 357 357 357 358 360 361 360 360 360 358 354 353 351 349 349 349 349 349 349 348 348 348 348 348 349 349 350 352 353 351 350 350 351 350 350 351 351 351 352 353 355 357 359 361 362 361 361 362 363 363 363 363 362 363 362 362 361 360
341 347 350 351 353 355 356 357 357 358 359 360 359 358 358 358 358 357 352 349 349 350 349 348 349 349 349 349 350 350 351 351 351 354 354 352 351 352 352 351 351 352 351 352 353 354 356 358 361 362 362 362 363 364 364 365 364 363 364 364 363 362 361
338 344 348 349 351 353 354 356 357 356 357 358 358 357 358 359 361 361 357 351 348 349 349 349 349 349 349 349 350 351 352 351 352 354 357 356 353 351 352 353 353 354 354 352 353 353 355 357 359 361 362 363 363 364 365 365 365 364 364 364 363 363 362
334 342 347 348 349 351 352 354 356 356 357 357 357 358 359 359 360 361 358 353 350 350 349 349 349 350 350 351 352 353 352 352 352 353 357 360 359 356 353 353 354 355 355 355 355 356 356 357 358 360 362 364 364 365 365 366 366 365 364 363 364 363 362
331 337 344 347 348 349 349 351 353 354 356 358 357 358 358 357 357 356 355 353 353 351 350 350 350 350 350 350 351 352 350 351 353 353 354 359 362 362 359 354 354 356 356 357 357 358 359 358 359 360 361 363 364 365 365 365 365 365 364 364 363 362 362
328 333 340 344 346 347 347 349 350 350 352 355 357 358 359 358 358 358 357 357 356 353 351 350 349 352 355 355 356 355 351 350 353 353 352 357 362 363 363 361 358 357 358 358 359 359 360 360 360 360 361 361 362 363 364 365 365 364 364 363 363 362 362
Wind_Speed
20 22 25 26 28 29 31 34 35 36 37 37 38 39 38 38 38 38 41 44 44 43 42 41 40 38 37 35 33 33 33 33 34 33 32 31 30 30 29 27 26 26 25 23 22 22 21 19 17 17 15 14 14 13 12 11 10 10 9 9 9 9 7
20 22 24 25 27 29 31 33 35 36 37 38 39 40 39 39 40 40 42 44 44 43 42 42 40 39 38 36 34 33 33 33 33 33 32 32 31 31 29 28 26 26 25 24 22 22 21 19 18 18 16 15 14 14 13 12 11 11 10 10 9 10 9
21 22 23 25 28 30 31 32 35 36 37 38 40 42 43 42 42 43 44 45 45 43 43 43 42 40 39 37 35 35 34 33 33 33 32 32 32 31 30 28 27 25 25 24 24 23 21 19 18 18 18 17 15 15 14 13 12 12 12 11 10 10 10
24 23 24 26 29 29 30 33 35 36 36 38 40 42 44 45 44 44 45 45 45 44 44 44 43 41 41 39 37 37 36 34 34 33 32 31 31 31 30 29 27 26 25 25 25 24 23 20 19 19 19 19 17 16 16 15 13 13 12 12 11 11 11
26 25 25 26 27 28 31 33 35 37 38 38 39 40 42 44 44 44 45 45 44 44 43 44 43 42 42 40 39 38 36 35 35 33 32 31 31 31 30 30 28 26 26 25 25 25 24 22 21 20 20 20 20 19 17 16 15 14 14 13 13 12 12
24 25 25 25 27 29 32 34 36 38 39 38 38 39 40 41 43 43 43 44 44 43 42 42 43 43 42 41 40 39 37 36 35 34 32 31 31 31 30 29 28 27 26 26 25 24 24 23 22 22 21 21 22 21 20 19 18 17 16 15 15 14 14
23 24 26 26 27 30 32 34 35 36 36 35 35 36 36 38 41 42 41 42 43 43 42 42 42 43 43 42 41 40 39 38 36 34 33 31 31 30 29 29 28 28 27 26 26 25 24 24 23 23 23 22 22 22 22 21 20 18 18 17 16 16 16
20 22 25 27 28 30 31 33 34 34 34 34 34 35 36 37 38 40 41 42 42 42 42 43 43 43 43 43 42 42 40 39 37 35 34 31 30 30 29 28 27 27 27 27 27 25 25 25 24 24 24 23 23 23 23 23 21 20 20 19 18 18 18
20 22 24 26 28 29 30 31 31 31 32 34 35 36 37 37 38 40 41 41 41 42 43 43 43 43 44 43 43 43 41 40 39 37 34 32 31 30 28 27 26 26 27 27 26 25 25 25 25 25 25 24 24 24 24 24 23 22 22 22 22 21 20
15 20 22 23 24 25 25 25 27 30 33 36 37 37 37 37 38 39 39 39 40 42 43 42 41 43 44 44 43 43 42 41 40 38 36 34 33 32 29 28 26 26 26 26 25 25 25 25 25 26 26 25 25 25 25 25 24 24 24 24 24 23 22
8 13 15 17 18 19 21 24 28 32 36 38 39 38 38 38 38 38 39 40 41 40 41 41 40 42 44 44 43 43 43 42 41 40 38 37 35 34 31 29 28 27 26 26 26 25 25 26 26 26 27 26 26 26 26 25 25 25 25 25 25 25 24
7 10 13 15 16 19 21 24 28 32 35 38 38 37 38 39 38 37 38 40 39 38 39 40 40 41 43 44 44 44 43 43 42 41 40 38 36 35 33 31 29 28 27 27 27 27 27 27 27 27 27 27 26 26 27 26 26 26 26 26 26 26 25
5 7 11 14 16 19 22 24 27 31 35 38 37 36 37 38 37 37 37 38 37 37 38 40 40 40 42 44 43 44 44 44 43 42 40 39 37 35 33 32 31 29 29 28 27 27 28 28 29 28 28 28 27 27 28 28 28 28 28 27 27 27 27
5 6 7 11 15 19 23 26 28 31 35 37 37 36 36 36 36 36 36 37 36 36 37 39 40 41 43 44 43 44 45 44 43 42 40 39 38 37 35 33 32 31 30 29 28 28 28 28 29 29 29 29 29 29 29 29 30 30 30 29 29 29 29
9 9 6 9 15 20 24 27 30 33 36 37 37 37 36 35 36 36 36 37 37 37 37 38 41 42 43 44 44 44 44 44 43 42 40 39 39 38 37 35 34 33 33 31 30 29 28 28 28 29 30 30 30 30 30 31 31 31 31 31 31 30 30
13 12 10 7 10 18 23 26 30 33 37 38 38 38 36 35 37 38 38 38 38 39 38 39 42 44 45 46 46 45 44 43 43 42 41 40 40 39 38 37 36 35 34 33 31 30 30 29 29 28 29 30 30 30 31 31 32 33 32 32 32 31 31
16 15 13 11 8 11 17 23 27 31 35 38 40 40 39 39 39 40 38 37 39 39 39 40 42 46 47 47 46 46 44 43 42 42 41 41 41 40 38 37 37 36 35 33 32 31 31 31 30 29 29 30 31 31 31 32 33 33 32 32 32 31 31
19 18 18 16 13 12 14 18 23 29 34 38 40 41 42 42 41 40 39 39 40 40 39 39 42 46 47 47 47 46 44 42 42 42 42 42 42 40 38 38 37 37 36 34 33 32 32 32 32 31 30 30 30 31 32 33 33 33 32 31 31 31 31
20 21 21 21 19 18 17 18 20 26 32 36 39 41 44 44 44 45 44 42 40 39 38 38 40 44 47 47 47 46 44 42 42 42 43 42 42 40 39 38 38 38 36 35 33 33 33 33 33 33 32 32 31 31 31 32 33 33 31 30 30 30 30
22 22 23 23 23 23 22 20 21 25 30 34 38 40 41 42 44 44 42 38 37 38 38 38 38 42 46 47 47 45 43 42 42 43 43 43 42 41 40 39 38 38 36 35 34 34 34 34 34 34 34 33 33 33 32 32 33 33 31 30 29 28 29
22 23 25 25 25 26 25 23 23 25 29 33 35 36 37 38 39 39 38 38 38 38 39 38 38 41 45 46 45 44 43 42 43 43 43 43 42 41 41 40 39 38 36 36 35 35 35 35 34 34 34 33 33 34 33 34 34 33 31 29 28 28 28
23 25 26 27 28 29 28 26 25 26 28 31 32 33 35 37 37 37 37 37 37 37 38 38 39 42 45 45 43 43 43 43 43 43 43 43 42 42 42 41 40 39 37 37 36 35 35 35 34 34 34 33 33 34 34 34 34 34 32 30 28 28 28
25 26 27 28 29 30 29 27 24 23 25 29 30 32 34 35 36 36 36 35 35 37 37 39 42 44 44 43 42 42 43 43 43 43 42 42 42 42 42 41 40 39 38 38 37 36 35 34 34 34 34 34 34 34 34 34 34 34 32 30 29 28 29
24 26 27 28 28 28 26 23 21 21 23 27 30 33 34 34 35 36 37 36 36 36 37 40 44 45 43 41 41 41 42 42 42 41 42 42 42 42 41 41 40 39 38 38 37 36 35 34 33 33 34 34 34 34 34 34 34 34 33 31 30 29 29
25 26 26 25 25 24 21 18 17 18 22 27 30 32 33 34 35 36 38 38 36 36 38 42 45 43 40 39 40 41 41 41 40 40 40 41 42 41 41 40 40 39 37 36 36 35 35 34 33 34 34 34 33 33 33 32 33 34 33 32 31 30 30
26 26 24 23 21 18 15 15 15 18 23 27 30 32 33 34 35 36 38 38 36 36 40 43 42 39 38 38 39 40 40 39 39 39 39 40 40 40 40 39 38 38 37 36 36 36 35 35 34 34 34 33 32 32 32 32 32 34 34 32 31 31 30
24 22 20 20 17 12 10 12 15 18 22 26 30 32 33 34 35 36 38 38 38 39 41 41 40 38 37 38 38 39 38 38 37 37 38 39 39 38 39 38 38 38 37 36 36 36 35 35 35 35 34 33 33 32 32 32 32 33 34 33 32 31 31
20 19 17 16 13 8 8 10 15 19 21 25 30 31 32 35 36 37 39 40 41 41 39 38 38 38 37 37 37 37 37 37 37 36 37 37 37 37 38 38 37 38 37 36 36 35 35 35 35 34 32 31 31 31 32 32 33 33 34 33 32 32 31
19 18 16 13 11 7 5 7 13 18 20 23 28 31 32 36 38 39 40 41 41 40 38 38 38 36 34 35 35 36 37 37 36 35 35 36 36 37 37 37 37 37 37 37 36 35 35 34 33 33 31 29 28 29 29 29 30 32 34 34 33 32 32
19 19 15 12 10 7 1 4 9 15 19 22 26 29 32 35 37 38 39 39 39 39 38 38 35 33 33 33 34 35 36 36 35 34 34 35 36 36 37 37 37 37 37 36 35 35 35 31 28 28 28 27 26 25 24 23 22 26 31 33 33 33 32
19 18 16 12 9 6 1 1 5 11 16 19 23 27 30 33 35 36 37 38 37 37 37 36 34 33 33 33 34 35 36 35 34 33 32 33 35 35 36 36 36 36 35 32 30 30 30 27 24 22 23 24 24 22 22 22 21 23 26 29 30 31 31
21 19 18 15 11 8 4 1 5 9 12 16 19 23 27 31 33 34 35 36 36 36 36 36 35 33 32 33 34 34 35 34 33 32 32 32 33 33 33 34 35 35 33 30 28 25 24 23 22 22 22 22 22 21 22 23 22 22 23 24 24 25 27
23 20 19 18 15 12 8 3 4 7 10 13 15 18 23 27 28 30 33 34 35 36 36 36 35 33 33 33 34 34 34 34 32 31 31 31 31 31 31 31 32 32 32 32 31 30 27 24 23 23 23 22 21 21 21 22 21 21 22 24 23 22 24
25 21 20 20 19 17 13 7 3 5 8 10 13 15 17 19 20 23 30 33 33 33 35 34 33 32 31 32 32 32 32 32 31 29 29 29 30 30 30 30 31 31 32 32 32 32 31 28 25 24 23 22 21 21 22 22 22 22 21 20 20 21 22
29 23 20 20 22 21 18 13 8 5 5 6 8 11 13 14 14 16 24 31 32 30 31 32 31 30 29 30 31 30 30 30 30 28 27 27 28 29 29 29 30 31 31 31 30 30 30 28 26 25 23 22 22 23 23 23 23 22 19 17 17 18 18
30 27 22 19 20 22 20 17 13 10 9 7 6 7 9 11 13 14 18 26 28 27 28 29 28 28 28 27 28 29 28 28 29 28 27 25 25 27 30 30 30 30 30 30 29 28 28 27 27 25 23 22 22 22 23 22 21 21 19 17 16 15 15
30 29 25 20 19 22 21 18 16 16 14 12 9 8 7 7 10 12 15 19 22 24 26 27 26 27 27 27 27 28 28 28 28 28 28 26 24 25 28 30 31 30 30 30 29 27 26 26 26 26 25 24 23 22 21 21 19 19 18 17 15 14 14
30 30 27 22 20 22 22 19 17 17 16 14 12 11 9 7 7 8 10 13 15 19 23 25 26 26 25 25 25 26 28 28 27 28 28 28 27 25 22 24 28 30 30 30 29 28 26 25 26 26 26 26 25 23 23 22 20 18 17 16 15 15 16
Wind_Direction
194 196 199 199 198 199 198 196 194 194 194 194 196 198 198 199 200 203 213 220 220 219 218 219 219 219 220 221 220 221 224 225 226 226 227 227 228 229 229 229 228 228 228 231 234 234 232 227 225 228 228 224 223 223 221 220 219 220 223 225 224 220 215
199 200 201 199 200 201 200 197 195 194 195 195 197 200 199 198 201 204 212 219 220 218 217 217 217 217 219 220 219 221 222 223 224 225 225 226 227 227 228 228 228 228 228 228 231 235 233 229 225 225 227 226 225 224 222 223 223 223 224 226 229 230 225
207 205 203 200 201 202 199 197 196 196 196 195 197 201 202 202 204 208 213 218 219 218 218 217 216 216 218 220 221 222 222 222 223 224 224 225 226 227 228 229 228 228 229 228 230 234 233 229 225 223 224 225 225 223 221 222 223 224 225 226 227 234 233
211 209 206 203 202 202 199 197 197 198 198 198 199 202 204 206 209 212 216 219 219 217 217 217 217 217 219 220 221 222 222 221 223 224 223 224 226 227 227 229 228 228 229 228 229 231 231 229 226 223 223 223 223 223 222 221 222 224 225 227 227 232 236
210 209 206 203 201 200 200 199 198 198 199 200 200 201 203 207 210 213 216 219 220 218 217 217 217 217 218 219 219 220 220 221 222 223 222 222 224 226 227 228 228 228 228 229 229 229 229 229 228 226 223 222 222 223 223 222 222 224 225 228 230 231 235
209 206 203 201 200 200 201 201 201 202 202 199 198 199 200 203 207 210 213 217 219 218 217 217 216 216 217 217 218 218 219 220 221 221 221 220 222 225 226 227 228 228 228 229 229 228 228 229 230 230 227 224 224 225 226 225 224 225 226 228 231 232 232
211 204 202 201 200 202 203 202 202 203 202 198 197 197 197 199 203 206 208 212 216 216 215 215 214 215 216 216 216 217 218 219 219 220 220 219 219 222 225 226 227 228 228 228 228 227 227 227 229 231 231 229 228 228 229 229 226 226 228 229 232 234 233
213 205 203 202 202 204 204 203 202 200 198 196 196 196 196 197 198 201 204 209 212 212 212 213 214 214 215 214 215 216 217 218 219 220 219 217 218 220 222 224 225 225 226 226 226 224 225 226 227 230 231 231 232 231 231 232 229 228 231 232 233 235 238
215 208 206 207 208 207 204 202 199 196 195 195 195 196 197 196 196 199 201 203 206 209 210 211 212 214 215 214 215 215 216 217 219 220 218 216 218 220 221 223 223 221 221 222 222 222 222 224 226 228 230 230 232 232 232 233 232 231 233 235 236 238 240
218 209 211 214 214 210 204 199 195 193 194 194 196 196 197 197 197 199 198 198 203 207 208 207 207 212 215 214 214 215 215 216 217 219 217 216 218 219 220 222 223 220 217 216 218 219 219 220 222 226 228 229 231 233 233 234 234 234 235 238 239 240 241
221 208 214 219 217 210 202 196 193 193 194 194 195 196 196 197 197 198 197 198 201 202 203 203 203 209 215 215 213 214 215 216 217 218 218 217 218 219 219 220 221 221 218 214 214 216 217 218 219 223 226 227 230 233 234 235 235 236 237 240 241 241 242
218 208 216 216 211 206 202 198 195 193 195 197 197 196 197 197 197 198 198 198 199 197 197 200 200 205 213 215 214 214 215 215 216 217 218 217 217 217 218 217 218 221 220 215 214 215 218 219 219 222 226 227 229 233 236 236 237 238 238 240 242 242 242
238 224 221 213 206 203 200 199 196 195 199 203 201 198 198 198 198 198 198 197 197 195 195 197 197 200 210 215 214 214 215 215 215 215 216 216 215 215 217 216 215 218 221 219 215 214 217 220 221 223 226 229 230 233 237 239 239 240 240 239 240 242 242
286 264 229 207 203 201 198 199 198 198 203 207 204 200 199 199 198 198 198 197 196 195 194 196 197 200 208 214 214 214 215 215 214 214 215 215 215 215 216 216 214 216 220 221 218 215 216 219 223 225 227 229 231 233 237 240 241 241 241 239 238 240 241
303 294 264 217 205 201 200 202 203 205 210 210 206 201 200 199 198 197 197 196 196 196 195 196 198 202 207 213 214 215 215 214 214 213 214 214 215 215 216 217 217 218 221 222 221 218 217 218 221 225 226 228 230 232 235 238 240 241 240 238 237 237 239
311 307 303 275 223 211 210 210 212 216 216 213 208 203 200 199 198 197 197 196 195 196 195 196 200 205 209 213 215 216 215 214 213 213 213 214 215 215 216 218 219 220 223 223 222 221 220 220 221 224 226 228 229 231 233 236 239 240 239 239 238 237 237
318 316 315 311 284 241 227 220 218 219 218 218 215 207 202 201 201 199 197 196 195 195 195 196 201 208 212 214 216 217 216 214 212 213 213 214 216 216 216 218 220 222 223 223 222 222 222 223 223 223 225 229 229 230 232 236 238 240 240 239 239 238 238
318 317 315 313 308 288 261 240 226 221 222 224 220 211 206 204 203 200 197 197 196 195 194 195 202 210 213 214 216 217 216 214 212 213 214 214 216 217 216 218 220 222 223 222 221 221 222 224 225 224 225 228 230 230 232 236 239 240 240 240 239 239 238
315 314 313 310 305 297 284 268 246 230 228 228 223 216 211 207 206 208 205 200 194 193 193 194 200 209 213 214 216 218 216 214 213 214 214 215 216 217 217 218 220 221 222 222 221 222 224 225 225 226 226 227 230 231 232 235 238 239 240 240 239 238 238
312 310 309 305 301 296 288 278 262 242 231 229 227 222 215 207 207 210 206 197 192 192 192 192 197 208 214 216 218 219 217 215 215 215 216 216 217 217 218 218 219 221 222 223 224 225 225 226 227 228 228 229 231 232 232 234 238 240 240 239 239 238 237
309 308 304 300 297 293 287 280 268 250 233 226 223 216 207 201 201 202 199 196 195 193 192 192 197 206 214 218 220 220 218 216 216 217 217 218 218 218 219 219 220 221 222 224 226 227 226 227 229 230 231 231 232 233 234 234 237 240 240 238 237 237 236
309 304 298 296 294 289 285 278 266 251 236 225 216 207 201 198 195 194 195 196 195 192 191 194 200 208 216 220 221 220 218 217 217 217 218 219 219 220 220 221 221 221 221 224 226 228 229 229 230 232 233 233 233 234 236 236 238 240 240 238 236 234 234
308 300 295 294 292 288 284 276 261 246 231 219 209 202 200 196 191 189 191 191 191 193 193 197 205 214 219 221 220 219 218 217 217 217 218 219 220 220 221 221 222 222 222 223 225 228 231 231 231 232 234 235 235 235 236 238 239 240 239 237 235 232 231
311 300 296 295 294 290 283 269 252 236 221 209 202 199 196 191 188 187 188 188 191 192 193 201 212 218 220 220 218 218 218 217 217 217 218 219 220 221 221 222 223 223 222 223 225 227 230 233 233 234 235 236 237 237 237 239 241 242 240 237 235 232 231
314 302 298 298 297 291 277 256 240 225 211 202 197 194 190 187 185 185 186 188 190 190 194 206 215 218 218 217 217 217 217 217 216 216 217 219 220 221 222 222 223 223 223 224 225 226 229 232 234 235 236 237 239 240 239 240 243 244 242 239 236 234 233
311 303 302 304 302 290 265 240 225 213 204 198 193 188 185 184 183 185 188 188 188 191 201 211 217 217 216 216 216 217 217 216 216 216 217 219 220 221 223 223 223 224 224 224 226 227 228 230 233 236 237 238 239 241 242 242 244 246 245 242 238 235 234
312 305 304 308 306 290 255 228 217 210 202 195 189 184 182 181 181 186 191 190 192 200 208 214 217 216 216 216 215 216 217 216 216 216 218 220 221 222 223 224 224 226 226 226 227 229 229 231 234 237 239 240 241 243 244 244 244 246 246 244 240 237 235
324 317 311 311 313 296 254 226 216 210 200 191 187 184 182 182 183 190 195 197 202 207 208 211 215 216 215 214 214 215 216 217 218 218 220 222 223 223 224 225 225 227 228 229 229 231 232 233 235 237 238 239 241 242 244 245 245 246 246 245 243 239 237
344 334 325 320 321 313 265 225 215 206 195 189 187 184 183 185 190 196 201 204 207 207 206 211 215 215 213 212 212 214 216 218 219 219 221 222 224 225 226 227 228 228 229 231 231 232 234 235 236 237 236 236 237 240 242 244 245 246 247 245 244 242 238
352 345 344 336 326 324 301 217 217 204 194 191 187 185 188 194 199 203 205 207 206 205 207 213 215 213 212 211 211 213 215 218 219 220 221 222 224 226 227 228 229 230 231 232 232 233 235 235 234 235 234 233 234 235 236 237 238 244 247 245 243 243 240
353 360 4 356 347 352 24 196 206 194 189 190 189 188 194 201 207 209 207 206 206 206 208 213 213 212 212 211 211 213 214 217 219 220 221 223 225 226 227 228 229 230 230 230 229 230 232 232 229 227 227 228 229 229 230 230 231 239 247 248 244 242 238
3 17 16 10 15 27 34 169 190 181 177 182 186 190 197 204 210 212 208 206 208 208 209 212 213 212 211 211 212 213 213 215 218 220 222 223 225 226 227 227 229 230 229 228 227 225 224 222 220 220 221 222 224 225 226 229 230 232 243 250 246 235 231
5 22 26 22 29 39 42 64 180 181 175 179 185 190 198 204 208 210 210 209 210 210 210 213 214 213 213 213 213 213 214 215 215 217 221 223 224 225 226 227 228 229 229 229 228 226 223 218 214 215 219 220 221 223 224 226 227 226 232 243 243 229 223
5 23 33 31 37 46 49 60 118 165 171 179 184 187 192 197 199 204 210 211 211 211 212 215 216 215 214 214 213 213 214 215 214 214 217 220 222 222 224 225 225 226 227 227 226 225 224 220 214 212 214 216 218 220 221 222 223 221 223 231 234 227 223
9 23 33 33 40 49 51 56 76 112 139 155 170 177 180 185 190 198 207 211 213 213 214 215 215 215 215 214 213 213 214 215 215 213 212 216 220 222 222 222 222 224 227 227 227 227 226 225 222 219 217 216 217 217 218 219 221 221 222 224 226 230 232
9 22 35 39 45 51 51 53 63 81 95 107 135 157 166 181 192 197 204 210 212 214 216 216 214 212 212 211 211 212 214 214 214 212 210 211 215 219 222 223 222 223 226 227 227 228 228 228 229 227 222 220 220 221 223 223 222 223 227 234 239 246 251
7 19 32 39 45 48 47 48 56 67 77 90 110 129 141 173 197 204 208 211 213 214 216 217 213 210 208 208 209 211 213 212 211 212 212 210 211 217 223 226 225 225 226 228 229 228 227 228 229 229 226 224 223 225 228 231 232 234 240 249 253 251 246
7 18 29 35 41 44 41 41 47 53 60 72 90 108 120 136 159 180 196 204 210 215 217 216 213 208 205 205 207 209 211 211 211 212 213 212 211 214 220 226 228 228 228 229 231 232 231 230 230 230 231 231 230 230 232 236 240 242 244 248 244 236 228